Year,Month,Day,Hour,Minute,Value (Times are PST for temperature in C)
2015,06,15,00,00,17.20
2015,06,15,00,01,17.20
2015,06,15,00,02,17.20
2015,06,15,00,03,17.10
2015,06,15,00,04,17.10
2015,06,15,00,05,17.10
2015,06,15,00,06,17.10
2015,06,15,00,07,17.10
2015,06,15,00,08,17.10
2015,06,15,00,09,17.10
2015,06,15,00,10,17.20
2015,06,15,00,11,17.20
2015,06,15,00,12,17.20
2015,06,15,00,13,17.20
2015,06,15,00,14,17.30
2015,06,15,00,15,17.30
2015,06,15,00,16,17.30
2015,06,15,00,17,17.30
2015,06,15,00,18,17.40
2015,06,15,00,19,17.40
2015,06,15,00,20,17.40
2015,06,15,00,21,17.50
2015,06,15,00,22,17.50
2015,06,15,00,23,17.50
2015,06,15,00,24,17.60
2015,06,15,00,25,17.60
2015,06,15,00,26,17.60
2015,06,15,00,27,17.60
2015,06,15,00,28,17.60
2015,06,15,00,29,17.60
2015,06,15,00,30,17.60
2015,06,15,00,31,17.60
2015,06,15,00,32,17.60
2015,06,15,00,33,17.60
2015,06,15,00,34,17.60
2015,06,15,00,35,17.60
2015,06,15,00,36,17.60
2015,06,15,00,37,17.60
2015,06,15,00,38,17.60
2015,06,15,00,39,17.60
2015,06,15,00,40,17.70
2015,06,15,00,41,17.70
2015,06,15,00,42,17.70
2015,06,15,00,43,17.70
2015,06,15,00,44,17.70
2015,06,15,00,45,17.70
2015,06,15,00,46,17.70
2015,06,15,00,47,17.70
2015,06,15,00,48,17.70
2015,06,15,00,49,17.70
2015,06,15,00,50,17.70
2015,06,15,00,51,17.70
2015,06,15,00,52,17.70
2015,06,15,00,53,17.70
2015,06,15,00,54,17.70
2015,06,15,00,55,17.70
2015,06,15,00,56,17.70
2015,06,15,00,57,17.70
2015,06,15,00,58,17.70
2015,06,15,00,59,17.70
2015,06,15,01,00,17.70
2015,06,15,01,01,17.70
2015,06,15,01,02,17.60
2015,06,15,01,03,17.60
2015,06,15,01,04,17.60
2015,06,15,01,05,17.60
2015,06,15,01,06,17.60
2015,06,15,01,07,17.60
2015,06,15,01,08,17.70
2015,06,15,01,09,17.70
2015,06,15,01,10,17.70
2015,06,15,01,11,17.70
2015,06,15,01,12,17.70
2015,06,15,01,13,17.70
2015,06,15,01,14,17.60
2015,06,15,01,15,17.60
2015,06,15,01,16,17.60
2015,06,15,01,17,17.60
2015,06,15,01,18,17.60
2015,06,15,01,19,17.50
2015,06,15,01,20,17.60
2015,06,15,01,21,17.60
2015,06,15,01,22,17.60
2015,06,15,01,23,17.60
2015,06,15,01,24,17.60
2015,06,15,01,25,17.60
2015,06,15,01,26,17.60
2015,06,15,01,27,17.60
2015,06,15,01,28,17.60
2015,06,15,01,29,17.50
2015,06,15,01,30,17.50
2015,06,15,01,31,17.50
2015,06,15,01,32,17.50
2015,06,15,01,33,17.40
2015,06,15,01,34,17.40
2015,06,15,01,35,17.40
2015,06,15,01,36,17.40
2015,06,15,01,37,17.40
2015,06,15,01,38,17.40
2015,06,15,01,39,17.40
2015,06,15,01,40,17.40
2015,06,15,01,41,17.40
2015,06,15,01,42,17.40
2015,06,15,01,43,17.30
2015,06,15,01,44,17.30
2015,06,15,01,45,17.30
2015,06,15,01,46,17.30
2015,06,15,01,47,17.30
2015,06,15,01,48,17.30
2015,06,15,01,49,17.30
2015,06,15,01,50,17.30
2015,06,15,01,51,17.30
2015,06,15,01,52,17.30
2015,06,15,01,53,17.30
2015,06,15,01,54,17.30
2015,06,15,01,55,17.20
2015,06,15,01,56,17.20
2015,06,15,01,57,17.20
2015,06,15,01,58,17.20
2015,06,15,01,59,17.20
2015,06,15,02,00,17.20
2015,06,15,02,01,17.10
2015,06,15,02,02,17.10
2015,06,15,02,03,17.10
2015,06,15,02,04,17.10
2015,06,15,02,05,17.00
2015,06,15,02,06,17.00
2015,06,15,02,07,17.00
2015,06,15,02,08,17.00
2015,06,15,02,09,17.00
2015,06,15,02,10,17.00
2015,06,15,02,11,16.90
2015,06,15,02,12,16.90
2015,06,15,02,13,16.90
2015,06,15,02,14,16.90
2015,06,15,02,15,16.90
2015,06,15,02,16,16.90
2015,06,15,02,17,16.90
2015,06,15,02,18,16.80
2015,06,15,02,19,16.80
2015,06,15,02,20,16.80
2015,06,15,02,21,16.80
2015,06,15,02,22,16.80
2015,06,15,02,23,16.70
2015,06,15,02,24,16.70
2015,06,15,02,25,16.70
2015,06,15,02,26,16.70
2015,06,15,02,27,16.70
2015,06,15,02,28,16.70
2015,06,15,02,29,16.70
2015,06,15,02,30,16.70
2015,06,15,02,31,16.60
2015,06,15,02,32,16.60
2015,06,15,02,33,16.50
2015,06,15,02,34,16.40
2015,06,15,02,35,16.40
2015,06,15,02,36,16.40
2015,06,15,02,37,16.40
2015,06,15,02,38,16.40
2015,06,15,02,39,16.30
2015,06,15,02,40,16.30
2015,06,15,02,41,16.30
2015,06,15,02,42,16.30
2015,06,15,02,43,16.30
2015,06,15,02,44,16.30
2015,06,15,02,45,16.30
2015,06,15,02,46,16.30
2015,06,15,02,47,16.30
2015,06,15,02,48,16.30
2015,06,15,02,49,16.30
2015,06,15,02,50,16.40
2015,06,15,02,51,16.40
2015,06,15,02,52,16.50
2015,06,15,02,53,16.60
2015,06,15,02,54,16.60
2015,06,15,02,55,16.70
2015,06,15,02,56,16.70
2015,06,15,02,57,16.80
2015,06,15,02,58,16.80
2015,06,15,02,59,16.80
2015,06,15,03,00,16.80
2015,06,15,03,01,16.80
2015,06,15,03,02,16.80
2015,06,15,03,03,16.80
2015,06,15,03,04,16.80
2015,06,15,03,05,16.90
2015,06,15,03,06,16.90
2015,06,15,03,07,16.90
2015,06,15,03,08,16.80
2015,06,15,03,09,16.80
2015,06,15,03,10,16.80
2015,06,15,03,11,16.80
2015,06,15,03,12,16.80
2015,06,15,03,13,16.80
2015,06,15,03,14,16.80
2015,06,15,03,15,16.80
2015,06,15,03,16,16.80
2015,06,15,03,17,16.90
2015,06,15,03,18,16.90
2015,06,15,03,19,16.90
2015,06,15,03,20,16.90
2015,06,15,03,21,16.90
2015,06,15,03,22,16.90
2015,06,15,03,23,16.90
2015,06,15,03,24,16.90
2015,06,15,03,25,17.00
2015,06,15,03,26,17.00
2015,06,15,03,27,17.00
2015,06,15,03,28,17.00
2015,06,15,03,29,17.00
2015,06,15,03,30,17.00
2015,06,15,03,31,17.00
2015,06,15,03,32,17.00
2015,06,15,03,33,17.00
2015,06,15,03,34,16.90
2015,06,15,03,35,16.90
2015,06,15,03,36,17.00
2015,06,15,03,37,17.00
2015,06,15,03,38,16.90
2015,06,15,03,39,16.90
2015,06,15,03,40,16.90
2015,06,15,03,41,16.90
2015,06,15,03,42,16.90
2015,06,15,03,43,16.90
2015,06,15,03,44,16.80
2015,06,15,03,45,16.80
2015,06,15,03,46,16.80
2015,06,15,03,47,16.80
2015,06,15,03,48,16.80
2015,06,15,03,49,16.70
2015,06,15,03,50,16.70
2015,06,15,03,51,16.70
2015,06,15,03,52,16.70
2015,06,15,03,53,16.70
2015,06,15,03,54,16.70
2015,06,15,03,55,16.70
2015,06,15,03,56,16.70
2015,06,15,03,57,16.70
2015,06,15,03,58,16.70
2015,06,15,03,59,16.70
2015,06,15,04,00,16.70
2015,06,15,04,01,16.70
2015,06,15,04,02,16.70
2015,06,15,04,03,16.70
2015,06,15,04,04,16.70
2015,06,15,04,05,16.60
2015,06,15,04,06,16.60
2015,06,15,04,07,16.60
2015,06,15,04,08,16.60
2015,06,15,04,09,16.60
2015,06,15,04,10,16.60
2015,06,15,04,11,16.50
2015,06,15,04,12,16.50
2015,06,15,04,13,16.60
2015,06,15,04,14,16.60
2015,06,15,04,15,16.60
2015,06,15,04,16,16.60
2015,06,15,04,17,16.60
2015,06,15,04,18,16.60
2015,06,15,04,19,16.70
2015,06,15,04,20,16.70
2015,06,15,04,21,16.70
2015,06,15,04,22,16.70
2015,06,15,04,23,16.70
2015,06,15,04,24,16.70
2015,06,15,04,25,16.70
2015,06,15,04,26,16.70
2015,06,15,04,27,16.70
2015,06,15,04,28,16.70
2015,06,15,04,29,16.70
2015,06,15,04,30,16.70
2015,06,15,04,31,16.70
2015,06,15,04,32,16.60
2015,06,15,04,33,16.60
2015,06,15,04,34,16.60
2015,06,15,04,35,16.60
2015,06,15,04,36,16.60
2015,06,15,04,37,16.50
2015,06,15,04,38,16.40
2015,06,15,04,39,16.40
2015,06,15,04,40,16.40
2015,06,15,04,41,16.40
2015,06,15,04,42,16.40
2015,06,15,04,43,16.40
2015,06,15,04,44,16.30
2015,06,15,04,45,16.30
2015,06,15,04,46,16.20
2015,06,15,04,47,16.20
2015,06,15,04,48,16.20
2015,06,15,04,49,16.20
2015,06,15,04,50,16.10
2015,06,15,04,51,16.10
2015,06,15,04,52,16.10
2015,06,15,04,53,16.10
2015,06,15,04,54,16.10
2015,06,15,04,55,16.10
2015,06,15,04,56,16.20
2015,06,15,04,57,16.20
2015,06,15,04,58,16.20
2015,06,15,04,59,16.20
2015,06,15,05,00,16.20
2015,06,15,05,01,16.20
2015,06,15,05,02,16.20
2015,06,15,05,03,16.20
2015,06,15,05,04,16.20
2015,06,15,05,05,16.20
2015,06,15,05,06,16.20
2015,06,15,05,07,16.20
2015,06,15,05,08,16.20
2015,06,15,05,09,16.20
2015,06,15,05,10,16.20
2015,06,15,05,11,16.20
2015,06,15,05,12,16.20
2015,06,15,05,13,16.20
2015,06,15,05,14,16.20
2015,06,15,05,15,16.20
2015,06,15,05,16,16.20
2015,06,15,05,17,16.30
2015,06,15,05,18,16.30
2015,06,15,05,19,16.30
2015,06,15,05,20,16.30
2015,06,15,05,21,16.30
2015,06,15,05,22,16.30
2015,06,15,05,23,16.20
2015,06,15,05,24,16.20
2015,06,15,05,25,16.20
2015,06,15,05,26,16.20
2015,06,15,05,27,16.10
2015,06,15,05,28,16.10
2015,06,15,05,29,16.10
2015,06,15,05,30,16.10
2015,06,15,05,31,16.10
2015,06,15,05,32,16.00
2015,06,15,05,33,15.90
2015,06,15,05,34,15.90
2015,06,15,05,35,15.90
2015,06,15,05,36,15.80
2015,06,15,05,37,15.80
2015,06,15,05,38,15.80
2015,06,15,05,39,15.80
2015,06,15,05,40,15.80
2015,06,15,05,41,15.80
2015,06,15,05,42,15.80
2015,06,15,05,43,15.80
2015,06,15,05,44,15.80
2015,06,15,05,45,15.80
2015,06,15,05,46,15.80
2015,06,15,05,47,15.80
2015,06,15,05,48,15.80
2015,06,15,05,49,15.80
2015,06,15,05,50,15.80
2015,06,15,05,51,15.70
2015,06,15,05,52,15.70
2015,06,15,05,53,15.70
2015,06,15,05,54,15.70
2015,06,15,05,55,15.70
2015,06,15,05,56,15.70
2015,06,15,05,57,15.70
2015,06,15,05,58,15.70
2015,06,15,05,59,15.70
2015,06,15,06,00,15.70
2015,06,15,06,01,15.70
2015,06,15,06,02,15.70
2015,06,15,06,03,15.60
2015,06,15,06,04,15.60
2015,06,15,06,05,15.60
2015,06,15,06,06,15.60
2015,06,15,06,07,15.60
2015,06,15,06,08,15.60
2015,06,15,06,09,15.60
2015,06,15,06,10,15.60
2015,06,15,06,11,15.60
2015,06,15,06,12,15.60
2015,06,15,06,13,15.60
2015,06,15,06,14,15.60
2015,06,15,06,15,15.60
2015,06,15,06,16,15.60
2015,06,15,06,17,15.60
2015,06,15,06,18,15.60
2015,06,15,06,19,15.70
2015,06,15,06,20,15.70
2015,06,15,06,21,15.70
2015,06,15,06,22,15.70
2015,06,15,06,23,15.70
2015,06,15,06,24,15.80
2015,06,15,06,25,15.90
2015,06,15,06,26,15.90
2015,06,15,06,27,16.00
2015,06,15,06,28,16.10
2015,06,15,06,29,16.10
2015,06,15,06,30,16.10
2015,06,15,06,31,16.10
2015,06,15,06,32,16.10
2015,06,15,06,33,16.10
2015,06,15,06,34,16.20
2015,06,15,06,35,16.20
2015,06,15,06,36,16.20
2015,06,15,06,37,16.20
2015,06,15,06,38,16.20
2015,06,15,06,39,16.20
2015,06,15,06,40,16.20
2015,06,15,06,41,16.30
2015,06,15,06,42,16.30
2015,06,15,06,43,16.30
2015,06,15,06,44,16.30
2015,06,15,06,45,16.30
2015,06,15,06,46,16.30
2015,06,15,06,47,16.30
2015,06,15,06,48,16.40
2015,06,15,06,49,16.40
2015,06,15,06,50,16.40
2015,06,15,06,51,16.40
2015,06,15,06,52,16.40
2015,06,15,06,53,16.40
2015,06,15,06,54,16.40
2015,06,15,06,55,16.60
2015,06,15,06,56,16.60
2015,06,15,06,57,16.60
2015,06,15,06,58,16.60
2015,06,15,06,59,16.70
2015,06,15,07,00,16.70
2015,06,15,07,01,16.70
2015,06,15,07,02,16.70
2015,06,15,07,03,16.70
2015,06,15,07,04,16.70
2015,06,15,07,05,16.80
2015,06,15,07,06,16.80
2015,06,15,07,07,16.90
2015,06,15,07,08,16.90
2015,06,15,07,09,16.90
2015,06,15,07,10,17.00
2015,06,15,07,11,17.00
2015,06,15,07,12,17.00
2015,06,15,07,13,17.10
2015,06,15,07,14,17.10
2015,06,15,07,15,17.10
2015,06,15,07,16,17.20
2015,06,15,07,17,17.20
2015,06,15,07,18,17.20
2015,06,15,07,19,17.20
2015,06,15,07,20,17.20
2015,06,15,07,21,17.30
2015,06,15,07,22,17.30
2015,06,15,07,23,17.30
2015,06,15,07,24,17.30
2015,06,15,07,25,17.30
2015,06,15,07,26,17.30
2015,06,15,07,27,17.30
2015,06,15,07,28,17.30
2015,06,15,07,29,17.30
2015,06,15,07,30,17.40
2015,06,15,07,31,17.40
2015,06,15,07,32,17.40
2015,06,15,07,33,17.50
2015,06,15,07,34,17.50
2015,06,15,07,35,17.50
2015,06,15,07,36,17.50
2015,06,15,07,37,17.50
2015,06,15,07,38,17.50
2015,06,15,07,39,17.50
2015,06,15,07,40,17.50
2015,06,15,07,41,17.50
2015,06,15,07,42,17.50
2015,06,15,07,43,17.50
2015,06,15,07,44,17.50
2015,06,15,07,45,17.50
2015,06,15,07,46,17.50
2015,06,15,07,47,17.50
2015,06,15,07,48,17.40
2015,06,15,07,49,17.40
2015,06,15,07,50,17.40
2015,06,15,07,51,17.40
2015,06,15,07,52,17.30
2015,06,15,07,53,17.30
2015,06,15,07,54,17.30
2015,06,15,07,55,17.30
2015,06,15,07,56,17.30
2015,06,15,07,57,17.30
2015,06,15,07,58,17.30
2015,06,15,07,59,17.20
2015,06,15,08,00,17.20
2015,06,15,08,01,17.10
2015,06,15,08,02,17.10
2015,06,15,08,03,17.00
2015,06,15,08,04,17.00
2015,06,15,08,05,16.90
2015,06,15,08,06,16.90
2015,06,15,08,07,16.90
2015,06,15,08,08,17.00
2015,06,15,08,09,17.00
2015,06,15,08,10,17.00
2015,06,15,08,11,17.10
2015,06,15,08,12,17.10
2015,06,15,08,13,17.20
2015,06,15,08,14,17.30
2015,06,15,08,15,17.30
2015,06,15,08,16,17.40
2015,06,15,08,17,17.40
2015,06,15,08,18,17.50
2015,06,15,08,19,17.50
2015,06,15,08,20,17.60
2015,06,15,08,21,17.60
2015,06,15,08,22,17.60
2015,06,15,08,23,17.60
2015,06,15,08,24,17.60
2015,06,15,08,25,17.60
2015,06,15,08,26,17.60
2015,06,15,08,27,17.60
2015,06,15,08,28,17.60
2015,06,15,08,29,17.70
2015,06,15,08,30,17.80
2015,06,15,08,31,17.80
2015,06,15,08,32,17.90
2015,06,15,08,33,17.90
2015,06,15,08,34,18.00
2015,06,15,08,35,18.10
2015,06,15,08,36,18.10
2015,06,15,08,37,18.10
2015,06,15,08,38,18.10
2015,06,15,08,39,18.10
2015,06,15,08,40,18.20
2015,06,15,08,41,18.20
2015,06,15,08,42,18.20
2015,06,15,08,43,18.30
2015,06,15,08,44,18.40
2015,06,15,08,45,18.40
2015,06,15,08,46,18.40
2015,06,15,08,47,18.50
2015,06,15,08,48,18.50
2015,06,15,08,49,18.60
2015,06,15,08,50,18.60
2015,06,15,08,51,18.60
2015,06,15,08,52,18.60
2015,06,15,08,53,18.60
2015,06,15,08,54,18.70
2015,06,15,08,55,18.70
2015,06,15,08,56,18.80
2015,06,15,08,57,18.80
2015,06,15,08,58,18.80
2015,06,15,08,59,18.80
2015,06,15,09,00,18.80
2015,06,15,09,01,18.80
2015,06,15,09,02,18.80
2015,06,15,09,03,18.80
2015,06,15,09,04,18.80
2015,06,15,09,05,18.80
2015,06,15,09,06,18.80
2015,06,15,09,07,18.80
2015,06,15,09,08,18.80
2015,06,15,09,09,18.90
2015,06,15,09,10,18.90
2015,06,15,09,11,19.10
2015,06,15,09,12,19.10
2015,06,15,09,13,19.10
2015,06,15,09,14,19.10
2015,06,15,09,15,19.10
2015,06,15,09,16,19.10
2015,06,15,09,17,19.10
2015,06,15,09,18,19.20
2015,06,15,09,19,19.20
2015,06,15,09,20,19.30
2015,06,15,09,21,19.30
2015,06,15,09,22,19.30
2015,06,15,09,23,19.30
2015,06,15,09,24,19.30
2015,06,15,09,25,19.30
2015,06,15,09,26,19.30
2015,06,15,09,27,19.30
2015,06,15,09,28,19.40
2015,06,15,09,29,19.40
2015,06,15,09,30,19.50
2015,06,15,09,31,19.50
2015,06,15,09,32,19.50
2015,06,15,09,33,19.50
2015,06,15,09,34,19.60
2015,06,15,09,35,19.60
2015,06,15,09,36,19.60
2015,06,15,09,37,19.60
2015,06,15,09,38,19.70
2015,06,15,09,39,19.70
2015,06,15,09,40,19.80
2015,06,15,09,41,19.80
2015,06,15,09,42,19.90
2015,06,15,09,43,19.90
2015,06,15,09,44,19.90
2015,06,15,09,45,19.90
2015,06,15,09,46,19.90
2015,06,15,09,47,19.90
2015,06,15,09,48,19.90
2015,06,15,09,49,20.00
2015,06,15,09,50,20.10
2015,06,15,09,51,20.10
2015,06,15,09,52,20.10
2015,06,15,09,53,20.10
2015,06,15,09,54,20.20
2015,06,15,09,55,20.20
2015,06,15,09,56,20.20
2015,06,15,09,57,20.20
2015,06,15,09,58,20.20
2015,06,15,09,59,20.20
2015,06,15,10,00,20.20
2015,06,15,10,01,20.30
2015,06,15,10,02,20.40
2015,06,15,10,03,20.50
2015,06,15,10,04,20.50
2015,06,15,10,05,20.50
2015,06,15,10,06,20.50
2015,06,15,10,07,20.60
2015,06,15,10,08,20.70
2015,06,15,10,09,20.70
2015,06,15,10,10,20.70
2015,06,15,10,11,20.70
2015,06,15,10,12,20.70
2015,06,15,10,13,20.70
2015,06,15,10,14,20.70
2015,06,15,10,15,20.80
2015,06,15,10,16,20.80
2015,06,15,10,17,20.90
2015,06,15,10,18,20.90
2015,06,15,10,19,20.90
2015,06,15,10,20,20.90
2015,06,15,10,21,20.90
2015,06,15,10,22,20.90
2015,06,15,10,23,20.90
2015,06,15,10,24,20.90
2015,06,15,10,25,20.80
2015,06,15,10,26,20.80
2015,06,15,10,27,20.80
2015,06,15,10,28,20.80
2015,06,15,10,29,20.90
2015,06,15,10,30,20.90
2015,06,15,10,31,20.80
2015,06,15,10,32,20.70
2015,06,15,10,33,20.70
2015,06,15,10,34,20.70
2015,06,15,10,35,20.70
2015,06,15,10,36,20.60
2015,06,15,10,37,20.60
2015,06,15,10,38,20.60
2015,06,15,10,39,20.60
2015,06,15,10,40,20.60
2015,06,15,10,41,20.60
2015,06,15,10,42,20.50
2015,06,15,10,43,20.50
2015,06,15,10,44,20.50
2015,06,15,10,45,20.50
2015,06,15,10,46,20.50
2015,06,15,10,47,20.70
2015,06,15,10,48,20.80
2015,06,15,10,49,20.90
2015,06,15,10,50,21.00
2015,06,15,10,51,21.10
2015,06,15,10,52,21.10
2015,06,15,10,53,21.10
2015,06,15,10,54,21.20
2015,06,15,10,55,21.20
2015,06,15,10,56,21.30
2015,06,15,10,57,21.40
2015,06,15,10,58,21.40
2015,06,15,10,59,21.40
2015,06,15,11,00,21.40
2015,06,15,11,01,21.30
2015,06,15,11,02,21.20
2015,06,15,11,03,21.10
2015,06,15,11,04,21.10
2015,06,15,11,05,21.10
2015,06,15,11,06,21.10
2015,06,15,11,07,21.10
2015,06,15,11,08,21.20
2015,06,15,11,09,21.30
2015,06,15,11,10,21.50
2015,06,15,11,11,21.60
2015,06,15,11,12,21.80
2015,06,15,11,13,21.90
2015,06,15,11,14,22.00
2015,06,15,11,15,22.20
2015,06,15,11,16,22.30
2015,06,15,11,17,22.40
2015,06,15,11,18,22.50
2015,06,15,11,19,22.50
2015,06,15,11,20,22.50
2015,06,15,11,21,22.50
2015,06,15,11,22,22.50
2015,06,15,11,23,22.50
2015,06,15,11,24,22.40
2015,06,15,11,25,22.40
2015,06,15,11,26,22.30
2015,06,15,11,27,22.40
2015,06,15,11,28,22.40
2015,06,15,11,29,22.40
2015,06,15,11,30,22.50
2015,06,15,11,31,22.50
2015,06,15,11,32,22.50
2015,06,15,11,33,22.50
2015,06,15,11,34,22.50
2015,06,15,11,35,22.50
2015,06,15,11,36,22.40
2015,06,15,11,37,22.30
2015,06,15,11,38,22.20
2015,06,15,11,39,22.20
2015,06,15,11,40,22.20
2015,06,15,11,41,22.10
2015,06,15,11,42,22.10
2015,06,15,11,43,22.20
2015,06,15,11,44,22.20
2015,06,15,11,45,22.30
2015,06,15,11,46,22.30
2015,06,15,11,47,22.30
2015,06,15,11,48,22.40
2015,06,15,11,49,22.40
2015,06,15,11,50,22.50
2015,06,15,11,51,22.50
2015,06,15,11,52,22.60
2015,06,15,11,53,22.60
2015,06,15,11,54,22.60
2015,06,15,11,55,22.60
2015,06,15,11,56,22.60
2015,06,15,11,57,22.40
2015,06,15,11,58,22.30
2015,06,15,11,59,22.20
2015,06,15,12,00,22.20
2015,06,15,12,01,22.20
2015,06,15,12,02,22.30
2015,06,15,12,03,22.40
2015,06,15,12,04,22.40
2015,06,15,12,05,22.50
2015,06,15,12,06,22.60
2015,06,15,12,07,22.70
2015,06,15,12,08,22.70
2015,06,15,12,09,22.70
2015,06,15,12,10,22.70
2015,06,15,12,11,22.70
2015,06,15,12,12,22.60
2015,06,15,12,13,22.60
2015,06,15,12,14,22.50
2015,06,15,12,15,22.50
2015,06,15,12,16,22.50
2015,06,15,12,17,22.60
2015,06,15,12,18,22.60
2015,06,15,12,19,22.70
2015,06,15,12,20,22.70
2015,06,15,12,21,22.80
2015,06,15,12,22,22.90
2015,06,15,12,23,22.90
2015,06,15,12,24,23.00
2015,06,15,12,25,23.00
2015,06,15,12,26,23.10
2015,06,15,12,27,23.10
2015,06,15,12,28,23.10
2015,06,15,12,29,23.20
2015,06,15,12,30,23.30
2015,06,15,12,31,23.30
2015,06,15,12,32,23.30
2015,06,15,12,33,23.30
2015,06,15,12,34,23.40
2015,06,15,12,35,23.50
2015,06,15,12,36,23.60
2015,06,15,12,37,23.60
2015,06,15,12,38,23.60
2015,06,15,12,39,23.60
2015,06,15,12,40,23.50
2015,06,15,12,41,23.60
2015,06,15,12,42,23.60
2015,06,15,12,43,23.60
2015,06,15,12,44,23.70
2015,06,15,12,45,23.70
2015,06,15,12,46,23.70
2015,06,15,12,47,23.70
2015,06,15,12,48,23.70
2015,06,15,12,49,23.80
2015,06,15,12,50,23.90
2015,06,15,12,51,24.00
2015,06,15,12,52,24.10
2015,06,15,12,53,24.10
2015,06,15,12,54,24.10
2015,06,15,12,55,24.10
2015,06,15,12,56,24.10
2015,06,15,12,57,24.10
2015,06,15,12,58,24.20
2015,06,15,12,59,24.20
2015,06,15,13,00,24.20
2015,06,15,13,01,24.30
2015,06,15,13,02,24.30
2015,06,15,13,03,24.30
2015,06,15,13,04,24.20
2015,06,15,13,05,24.20
2015,06,15,13,06,24.10
2015,06,15,13,07,24.10
2015,06,15,13,08,24.10
2015,06,15,13,09,24.10
2015,06,15,13,10,24.10
2015,06,15,13,11,24.10
2015,06,15,13,12,24.10
2015,06,15,13,13,24.10
2015,06,15,13,14,24.10
2015,06,15,13,15,24.10
2015,06,15,13,16,24.10
2015,06,15,13,17,24.10
2015,06,15,13,18,24.10
2015,06,15,13,19,24.10
2015,06,15,13,20,24.10
2015,06,15,13,21,24.10
2015,06,15,13,22,24.10
2015,06,15,13,23,24.10
2015,06,15,13,24,24.10
2015,06,15,13,25,24.10
2015,06,15,13,26,24.10
2015,06,15,13,27,24.10
2015,06,15,13,28,24.10
2015,06,15,13,29,24.10
2015,06,15,13,30,24.10
2015,06,15,13,31,24.10
2015,06,15,13,32,24.10
2015,06,15,13,33,24.20
2015,06,15,13,34,24.20
2015,06,15,13,35,24.10
2015,06,15,13,36,24.10
2015,06,15,13,37,24.10
2015,06,15,13,38,24.10
2015,06,15,13,39,24.20
2015,06,15,13,40,24.20
2015,06,15,13,41,24.20
2015,06,15,13,42,24.20
2015,06,15,13,43,24.20
2015,06,15,13,44,24.30
2015,06,15,13,45,24.30
2015,06,15,13,46,24.40
2015,06,15,13,47,24.40
2015,06,15,13,48,24.30
2015,06,15,13,49,24.30
2015,06,15,13,50,24.30
2015,06,15,13,51,24.30
2015,06,15,13,52,24.40
2015,06,15,13,53,24.50
2015,06,15,13,54,24.60
2015,06,15,13,55,24.60
2015,06,15,13,56,24.70
2015,06,15,13,57,24.70
2015,06,15,13,58,24.70
2015,06,15,13,59,24.70
2015,06,15,14,00,24.70
2015,06,15,14,01,24.70
2015,06,15,14,02,24.70
2015,06,15,14,03,24.60
2015,06,15,14,04,24.50
2015,06,15,14,05,24.40
2015,06,15,14,06,24.30
2015,06,15,14,07,24.20
2015,06,15,14,08,24.10
2015,06,15,14,09,24.00
2015,06,15,14,10,23.90
2015,06,15,14,11,23.90
2015,06,15,14,12,23.80
2015,06,15,14,13,23.80
2015,06,15,14,14,23.90
2015,06,15,14,15,23.90
2015,06,15,14,16,23.80
2015,06,15,14,17,23.70
2015,06,15,14,18,23.60
2015,06,15,14,19,23.50
2015,06,15,14,20,23.40
2015,06,15,14,21,23.40
2015,06,15,14,22,23.30
2015,06,15,14,23,23.20
2015,06,15,14,24,23.20
2015,06,15,14,25,23.20
2015,06,15,14,26,23.20
2015,06,15,14,27,23.20
2015,06,15,14,28,23.20
2015,06,15,14,29,23.30
2015,06,15,14,30,23.30
2015,06,15,14,31,23.50
2015,06,15,14,32,23.60
2015,06,15,14,33,23.70
2015,06,15,14,34,23.80
2015,06,15,14,35,23.80
2015,06,15,14,36,23.90
2015,06,15,14,37,23.90
2015,06,15,14,38,23.80
2015,06,15,14,39,23.80
2015,06,15,14,40,23.90
2015,06,15,14,41,23.90
2015,06,15,14,42,24.10
2015,06,15,14,43,24.20
2015,06,15,14,44,24.30
2015,06,15,14,45,24.40
2015,06,15,14,46,24.60
2015,06,15,14,47,24.70
2015,06,15,14,48,24.90
2015,06,15,14,49,25.00
2015,06,15,14,50,25.20
2015,06,15,14,51,25.30
2015,06,15,14,52,25.30
2015,06,15,14,53,25.40
2015,06,15,14,54,25.40
2015,06,15,14,55,25.30
2015,06,15,14,56,25.30
2015,06,15,14,57,25.20
2015,06,15,14,58,25.00
2015,06,15,14,59,24.70
2015,06,15,15,00,24.50
2015,06,15,15,01,24.40
2015,06,15,15,02,24.30
2015,06,15,15,03,24.20
2015,06,15,15,04,24.10
2015,06,15,15,05,24.10
2015,06,15,15,06,24.10
2015,06,15,15,07,24.00
2015,06,15,15,08,23.90
2015,06,15,15,09,23.80
2015,06,15,15,10,23.80
2015,06,15,15,11,23.90
2015,06,15,15,12,23.90
2015,06,15,15,13,23.90
2015,06,15,15,14,23.90
2015,06,15,15,15,24.00
2015,06,15,15,16,24.10
2015,06,15,15,17,24.20
2015,06,15,15,18,24.30
2015,06,15,15,19,24.40
2015,06,15,15,20,24.50
2015,06,15,15,21,24.60
2015,06,15,15,22,24.60
2015,06,15,15,23,24.70
2015,06,15,15,24,24.70
2015,06,15,15,25,24.80
2015,06,15,15,26,24.90
2015,06,15,15,27,24.90
2015,06,15,15,28,25.10
2015,06,15,15,29,25.20
2015,06,15,15,30,25.30
2015,06,15,15,31,25.30
2015,06,15,15,32,25.40
2015,06,15,15,33,25.40
2015,06,15,15,34,25.30
2015,06,15,15,35,25.20
2015,06,15,15,36,25.20
2015,06,15,15,37,25.20
2015,06,15,15,38,25.30
2015,06,15,15,39,25.40
2015,06,15,15,40,25.40
2015,06,15,15,41,25.50
2015,06,15,15,42,25.50
2015,06,15,15,43,25.50
2015,06,15,15,44,25.50
2015,06,15,15,45,25.40
2015,06,15,15,46,25.40
2015,06,15,15,47,25.50
2015,06,15,15,48,25.40
2015,06,15,15,49,25.40
2015,06,15,15,50,25.40
2015,06,15,15,51,25.40
2015,06,15,15,52,25.40
2015,06,15,15,53,25.30
2015,06,15,15,54,25.20
2015,06,15,15,55,25.10
2015,06,15,15,56,25.10
2015,06,15,15,57,25.00
2015,06,15,15,58,25.00
2015,06,15,15,59,24.90
2015,06,15,16,00,24.90
2015,06,15,16,01,25.00
2015,06,15,16,02,25.10
2015,06,15,16,03,25.10
2015,06,15,16,04,25.20
2015,06,15,16,05,25.20
2015,06,15,16,06,25.20
2015,06,15,16,07,25.10
2015,06,15,16,08,25.10
2015,06,15,16,09,25.10
2015,06,15,16,10,25.10
2015,06,15,16,11,25.10
2015,06,15,16,12,25.10
2015,06,15,16,13,25.10
2015,06,15,16,14,25.10
2015,06,15,16,15,25.20
2015,06,15,16,16,25.20
2015,06,15,16,17,25.30
2015,06,15,16,18,25.40
2015,06,15,16,19,25.40
2015,06,15,16,20,25.40
2015,06,15,16,21,25.50
2015,06,15,16,22,25.70
2015,06,15,16,23,25.80
2015,06,15,16,24,25.90
2015,06,15,16,25,26.00
2015,06,15,16,26,26.20
2015,06,15,16,27,26.30
2015,06,15,16,28,26.40
2015,06,15,16,29,26.40
2015,06,15,16,30,26.60
2015,06,15,16,31,26.60
2015,06,15,16,32,26.60
2015,06,15,16,33,26.60
2015,06,15,16,34,26.60
2015,06,15,16,35,26.60
2015,06,15,16,36,26.50
2015,06,15,16,37,26.60
2015,06,15,16,38,26.60
2015,06,15,16,39,26.60
2015,06,15,16,40,26.50
2015,06,15,16,41,26.50
2015,06,15,16,42,26.60
2015,06,15,16,43,26.60
2015,06,15,16,44,26.60
2015,06,15,16,45,26.40
2015,06,15,16,46,26.40
2015,06,15,16,47,26.40
2015,06,15,16,48,26.60
2015,06,15,16,49,26.60
2015,06,15,16,50,26.60
2015,06,15,16,51,26.60
2015,06,15,16,52,26.60
2015,06,15,16,53,26.60
2015,06,15,16,54,26.60
2015,06,15,16,55,26.60
2015,06,15,16,56,26.50
2015,06,15,16,57,26.50
2015,06,15,16,58,26.60
2015,06,15,16,59,26.60
2015,06,15,17,00,26.60
2015,06,15,17,01,26.60
2015,06,15,17,02,26.70
2015,06,15,17,03,26.70
2015,06,15,17,04,26.80
2015,06,15,17,05,26.80
2015,06,15,17,06,26.80
2015,06,15,17,07,26.90
2015,06,15,17,08,26.90
2015,06,15,17,09,26.90
2015,06,15,17,10,26.90
2015,06,15,17,11,26.90
2015,06,15,17,12,26.90
2015,06,15,17,13,26.90
2015,06,15,17,14,26.90
2015,06,15,17,15,26.80
2015,06,15,17,16,26.70
2015,06,15,17,17,26.60
2015,06,15,17,18,26.50
2015,06,15,17,19,26.40